Iowa City, IA

5:07 AM CST on December 06, 2019 (GMT -0600)
Iowa City Municipal

Weather History for KIOW - October, 2019

Change the Weather History Date:

Monday, October 14, 2019

  Actual Average Record
Temperature  
Mean Temperature 47 °F 53 °F  
Max Temperature 60 °F 64 °F 87 °F (1975)
Min Temperature 33 °F 42 °F 23 °F (1979)
Degree Days  
Heating Degree Days 18 13  
Month to date heating degree days 147 147  
Since 1 July heating degree days 154 259  
Cooling Degree Days 0 0  
Month to date cooling degree days 18 10  
Year to date cooling degree days 1175 912  
Moisture  
Dew Point 34 °F    
Average Humidity 65    
Maximum Humidity 89    
Minimum Humidity 40    
Precipitation  
Precipitation 0.00 in 0.11 in 2.25 in (1981)
Month to date precipitation 1.60 1.26  
Year to date precipitation 38.57 30.80  
Sea Level Pressure  
Sea Level Pressure 30.05 in    
Wind  
Wind Speed 3 mph (South)    
Max Wind Speed 10 mph    
Max Gust Speed 14 mph    
Visibility 10 miles    
Events      
T = Trace of Precipitation, MM = Missing Value Source: NWS Daily Summary

Daily Weather History Graph

Daily Weather History Graph

Search for Another Location

Airport or City:

Astronomy

Oct. 14, 2019 Rise Set
Actual Time 7:16 AM CDT 6:26 PM CDT
Civil Twilight 6:49 AM CDT 6:54 PM CDT
Nautical Twilight 6:16 AM CDT 7:26 PM CDT
Astronomical Twilight 5:44 AM CDT 7:58 PM CDT
Moon 7:16 PM CDT (10/14) 7:48 AM CDT (10/14)
Length of Visible Light 12h 05m
Length of Day
11h 09m
Full, 99% of the Moon is Illuminated
Oct 14
Full
Oct 21
Last Quarter
Oct 27
New
Nov 4
First Quarter
Nov 12
Full

Hourly Weather History & Observations

Time (CDT) Temp. Windchill Dew Point Humidity Pressure Visibility Wind Dir Wind Speed Gust Speed Precip Events Conditions
12:52 AM 37.9 °F 34.4 °F 33.1 °F 83% 30.04 in 10.0 mi West 4.6 mph - N/A   Clear
1:52 AM 36.0 °F 33.3 °F 32.0 °F 86% 30.05 in 10.0 mi West 3.5 mph - N/A   Clear
2:52 AM 35.1 °F 31.0 °F 30.9 °F 85% 30.05 in 10.0 mi West 4.6 mph - N/A   Clear
3:52 AM 36.0 °F - 30.9 °F 82% 30.06 in 10.0 mi Calm Calm - N/A   Clear
4:52 AM 36.0 °F - 30.9 °F 82% 30.06 in 10.0 mi Calm Calm - N/A   Clear
5:52 AM 35.1 °F 32.2 °F 30.9 °F 85% 30.09 in 10.0 mi West 3.5 mph - N/A   Clear
6:52 AM 34.0 °F - 30.0 °F 85% 30.10 in 10.0 mi Calm Calm - N/A   Clear
7:52 AM 36.0 °F - 30.9 °F 82% 30.12 in 10.0 mi Calm Calm - N/A   Clear
8:52 AM 39.9 °F - 34.0 °F 79% 30.14 in 10.0 mi Calm Calm - N/A   Clear
9:52 AM 46.0 °F - 33.1 °F 61% 30.13 in 10.0 mi Calm Calm - N/A   Clear
10:52 AM 48.9 °F - 33.1 °F 54% 30.13 in 10.0 mi North - - N/A   Clear
11:52 AM 50.0 °F - 33.1 °F 52% 30.13 in 10.0 mi West 5.8 mph - N/A   Clear
12:52 PM 55.0 °F - 36.0 °F 49% 30.10 in 10.0 mi Calm Calm - N/A   Clear
1:52 PM 55.0 °F - 36.0 °F 49% 30.07 in 10.0 mi South 9.2 mph - N/A   Clear
2:52 PM 57.9 °F - 35.1 °F 42% 30.06 in 10.0 mi WSW 4.6 mph - N/A   Clear
3:52 PM 59.0 °F - 35.1 °F 41% 30.03 in 10.0 mi SE 4.6 mph - N/A   Clear
4:52 PM 60.1 °F - 37.0 °F 42% 30.02 in 10.0 mi SSE 6.9 mph - N/A   Clear
5:52 PM 55.9 °F - 37.9 °F 51% 30.00 in 10.0 mi SSE 4.6 mph - N/A   Clear
6:52 PM 53.1 °F - 37.9 °F 57% 30.00 in 10.0 mi SE 3.5 mph - N/A   Clear
7:52 PM 51.1 °F - 37.9 °F 61% 29.99 in 10.0 mi SE 4.6 mph - N/A   Clear
8:52 PM 48.0 °F - 37.9 °F 68% 29.99 in 10.0 mi Calm Calm - N/A   Clear
9:52 PM 46.0 °F 43.9 °F 37.9 °F 73% 29.97 in 10.0 mi SSE 4.6 mph - N/A   Clear
10:52 PM 46.0 °F 43.9 °F 37.9 °F 73% 29.96 in 10.0 mi SSE 4.6 mph - N/A   Clear
11:52 PM 45.0 °F 43.5 °F 37.9 °F 76% 29.96 in 10.0 mi SE 3.5 mph - N/A   Clear